Location: Wavehorne
(51.0500°N, 0.8333°E)
Time: 06:48:02
(UTC+00:00)

NOSS 2-2 (C) - Pass Details

Date: 31 October 2021
Orbit: 444 x 1761 km, 63.3° (Epoch: 06 December)

Event Time Altitude Azimuth Distance (km) Brightness Sun altitude
Rises 17:55:32 0° 205° (SSW) 2,453 7.1 -13.5°
Reaches altitude 10° 17:57:39 10° 197° (SSW) 1,564 5.9 -13.8°
Maximum altitude 18:00:49 41° 126° (SE) 675 3.4 -14.3°
Enters shadow 18:02:08 28° 76° (ENE) 911 3.8 -14.5°
